Tracking 19854 objects as of 24-Sep-2019
HD Live streaming from Space Station
objects crossing your sky now

SL-8 DEB *

Track SL-8 DEB * now!
10-day predictions


NORAD ID: 18501
Int'l Code: 1978-019E
Perigee: 684.6 km
Apogee: 701.3 km
Inclination: 74.1 °
Period: 98.5 minutes
Semi major axis: 7063 km
RCS: 0.0081 m2 (small)
Launch date: February 17, 1978
Source: Commonwealth of Independent States (former USSR) (CIS)
Launch site: PLESETSK MISSILE AND SPACE COMPLEX (PKMTR)

Note: This is SATELLITE DEBRIS
aabbcc
Your satellite tracking list
Your tracking list is empty




NASA's NSSDC Master Catalog

Two Line Element Set (TLE):
1 18501U 78019E   19266.50844999  .00000263  00000-0  58179-4 0  9997
2 18501  74.0593 193.8396 0011813 262.3486 215.1144 14.62287114827471
Source of the keplerian elements: AFSPC